www.pogodaiklimat.ru

ПОГОДА в Dori

  • Прогноз погоды в Dori
  • Монитор погоды в Dori
  • Климат города

АРХИВ ПОГОДЫ в Dori

Время (UTC), дата Ветер
(напр.,м/с)
 
Видим.   Явления Облачность Т
(С)
Тd
(С)
f
(%)
Тe
(С)
Тes
(С)
Комфортность P
(гПа)
Po
(гПа)
Тmin
(С)
Tmax
(С)
R
(мм)
S
(см)
15 9.01 С 1 10 км 9/0
[Ci sp]
+31.6 -2.5 11 +28 +34 жарко 1010.9 979.7
18 9.01 штиль 0 10 км 9/0
[Ci sp]
+27.7 +4.3 22 +26 +26 жарко 1010.7 979.3 +32.1
21 9.01 штиль 0 10 км 9/0
[Ci sp]
+20.8 +5.3 36 +21 +21 комфорт 1012.6 981.0
00 10.01 штиль 0 10 км 9/0
[Ci sp]
+18.2 +3.5 38 +18 +18 1012.2 980.8
03 10.01 штиль 0 10 км 9/0
[Ci sp]
+16.0 +2.5 40 +16 +16 1011.6 980.3
06 10.01 штиль 0 10 км 9/0
[Ci sp]
+13.4 +3.3 50 +13 +13 1012.3 980.5 +13.1
09 10.01 С 1 10 км 9/0
[Ci sp]
+22.8 -5.8 14 +21 +27 комфорт 1011.9 980.3
12 10.01 СВ 1 10 км 9/0
[Ci sp]
+30.3 -5.5 9 +27 +41 жарко 1010.5 979.2
15 10.01 штиль 0 10 км 9/0
[Ci sp]
+31.8 +1.5 14 +28 +35 жарко 1008.4 977.1
18 10.01 штиль 0 10 км 9/0
[Ci sp]
+27.0 +8.4 31 +27 +27 жарко 1008.5 976.9 +32.8
21 10.01 штиль 0 10 км 9/0
[Ci sp]
+20.8 +8.5 45 +22 +22 комфорт 1010.5 978.9
03 11.01 штиль 0 10 км 9/0
[Ci sp]
+16.0 +2.5 40 +16 +16 1008.1 976.8
06 11.01 штиль 0 10 км 9/0
[Ci sp]
+15.8 -0.5 33 +16 +16 1010.3 978.7 +15.0
09 11.01 штиль 0 10 км 9/0
[Ci sp]
+18.8 -6.1 18 +19 +26 1011.7 979.9
12 11.01 СЗ 3 10 км 9/0
[Ac trans Ci sp]
+28.3 -7.0 9 +25 +34 комфорт 1010.7 979.3
15 11.01 штиль 0 10 км 9/0
[Ci sp]
+30.8 -4.4 10 +27 +35 жарко 1008.5 977.2
18 11.01 штиль 0 10 км 9/0
[Ci sp]
+27.7 +4.7 23 +26 +26 жарко 1009.8 978.3 +31.9
21 11.01 штиль 0 10 км 9/0
[Ci sp]
+20.8 +3.8 33 +21 +21 комфорт 1012.1 980.3
00 12.01 штиль 0 10 км 9/0
[Ci sp]
+16.8 +1.9 37 +17 +17 1012.0 980.5
03 12.01 штиль 0 10 км 9/0
[Ci sp]
+15.0 -1.2 33 +15 +15 1011.2 979.7
06 12.01 СЗ 1 10 км 9/0
[Ci sp]
+13.7 -6.9 23 +14 +14 1012.2 980.4 +13.7
09 12.01 СЗ 3 10 км 9/0
[Ci sp]
+21.1 -10.0 11 +20 +24 1014.3 982.6
12 12.01 С 2 10 км 9/0
[Ci sp]
+27.5 -9.3 8 +24 +36 комфорт 1014.2 982.6
15 12.01 С 2 10 км 9/0
[Ci sp]
+29.7 -9.1 7 +26 +31 жарко 1011.7 980.2
18 12.01 С 1 10 км 9/0
[Ci sp]
+25.8 -8.2 10 +23 +23 комфорт 1013.0 981.1 +30.2
21 12.01 штиль 0 10 км 9/0
[Ci sp]
+20.3 -1.7 23 +20 +20 1014.3 982.5
00 13.01 штиль 0 10 км 9/0
[Ci sp]
+16.8 +0.9 34 +17 +17 1014.3 982.7
03 13.01 С 2 10 км 9/0
[Ci sp]
+16.7 -4.4 23 +17 +17 1013.5 982.0
06 13.01 С 1 10 км 9/0
[Ci sp]
+14.3 -0.6 36 +15 +15 1014.5 982.6 +14.0
09 13.01 С 3 10 км 9/0
[Ci sp]
+19.0 -0.4 27 +19 +24 1016.9 984.9
12 13.01 С 1 10 км 9/0
[Ci sp]
+24.6 -1.6 18 +23 +37 комфорт 1015.2 983.3
15 13.01 С 2 10 км 9/0
[Ci sp]
+27.0 -0.5 17 +25 +30 комфорт 1012.3 980.6
18 13.01 С 1 10 км 9/0
[Ci sp]
+24.0 -0.1 20 +23 +23 комфорт 1013.2 981.3 +28.0
21 13.01 штиль 0 10 км 9/0
[Ci sp]
+18.7 +3.7 37 +19 +19 1015.0 983.0
00 14.01 штиль 0 10 км 9/0
[Ci sp]
+15.5 +1.4 38 +16 +16 1014.1 982.2
03 14.01 штиль 0 10 км 9/0
[Ci sp]
+13.8 -0.4 38 +14 +14 1013.1 981.3
06 14.01 штиль 0 10 км 9/0
[Ci sp]
+12.6 -0.3 41 +13 +13 1013.4 981.4 +12.6
09 14.01 СВ 1 10 км 9/0
[Ci sp]
+21.2 -5.0 17 +20 +27 1014.4 982.5
12 14.01 С 2 10 км 9/0
[Ci sp]
+26.1 -5.9 12 +23 +36 комфорт 1013.0 981.3
15 14.01 С 1 10 км 9/0
[Ci sp]
+29.0 -4.6 11 +26 +32 жарко 1010.1 978.6
18 14.01 штиль 0 10 км 9/0
[Ci sp]
+25.6 -3.6 14 +25 +25 комфорт 1010.7 978.9 +29.5
21 14.01 штиль 0 10 км 9/0
[Ci sp]
+20.9 -3.8 19 +20 +20 1011.7 980.0
00 15.01 штиль 0 10 км 9/0
[Ci sp]
+17.3 +2.1 36 +17 +17 1011.6 979.9
03 15.01 штиль 0 10 км 9/0
[Ci sp]
+14.2 +1.2 41 +14 +14 1011.2 979.6
06 15.01 штиль 0 10 км 9/0
[Ci sp]
+12.0 +0.1 44 +12 +12 1011.7 979.8 +12.0
09 15.01 С 1 10 км 9/0
[Ci sp]
+20.3 -5.8 17 +21 +28 комфорт 1013.0 981.2
12 15.01 С 2 10 км 9/0
[Ci sp]
+29.3 -3.7 11 +26 +38 жарко 1010.8 979.4
15 15.01 С 1 10 км 9/0
[Ci sp]
+31.2 -4.2 10 +28 +34 жарко 1008.6 977.2
18 15.01 штиль 0 10 км 9/0
[Ci sp]
+27.6 +0.1 17 +27 +27 жарко 1009.5 977.7 +31.8
21 15.01 штиль 0 10 км 9/0
[Ci sp]
+21.2 +3.9 32 +21 +21 комфорт 1011.2 979.5
00 16.01 штиль 0 10 км 9/0
[Ci sp]
+18.1 +2.1 34 +18 +18 1010.7 979.3
03 16.01 штиль 0 10 км 9/0
[Ci sp]
+15.4 +3.1 44 +15 +15 1010.3 978.9
06 16.01 штиль 0 10 км 9/0
[Ac trans Ci sp]
+14.4 +1.2 41 +14 +14 1011.1 979.4 +14.2
09 16.01 С 1 10 км 9/0
[Ci sp]
+20.5 -0.8 24 +22 +28 комфорт 1011.9 980.2
12 16.01 штиль 0 10 км 9/0
[Ci sp]
+30.7 -6.6 8 +27 +43 жарко 1010.0 978.7
15 16.01 С 1 10 км 9/0
[Ac trans Ci sp]
+30.4 -3.5 11 +27 +31 жарко 1008.8 977.4

 

Местоположение метеостанции Dori (Буркина-Фасо): широта 14.03 долгота -0.03 высота над уровнем моря 277 м.

В архиве по умолчанию представлена погода в Dori за последнюю неделю. Архивные данные за месяц целиком и за предыдущие месяцы, начиная с января 2011 года, Вы можете получить, выбрав интересующий диапазон дат из раскрывающегося списка и нажав кнопку "Ввод!".

Внимание! Время в таблицах - всемирное. Для получения местного времени необходимо прибавить поправку, которая в Dori равна 0 ч.

Ветер - указаны скорость ветра в м/с - средняя за 10 мин, порывы в срок и между сроками (в фигурных скобках) и направление, откуда дует ветер: С - северный, СВ - северо-восточный, В - восточный, ЮВ - юго-восточный, Ю - южный, ЮЗ - юго-западный, З - западный, СЗ - северо-западный.
Видимость - горизонтальная дальность видимости в метрах или километрах. При видимости от 1 до 10 км при отсутствии осадков обычно наблюдается дымка, при ухудшении видимости до 1 км и менее - туман. В сухую погоду видимость может ухудшаться дымом, пылью или мглою.
Явления - указаны атмосферные явления, наблюдавшиеся в срок или в последний час перед сроком; фигурными скобками обозначены явления, наблюдавшиеся между сроками (за 1-3 часа до срока); квадратными скобками обозначены град или гололедные отложения с указанием их диаметра в мм.
Облачность - указаны через наклонную черту общая и нижняя облачность в баллах и высота нижней границы облаков в метрах; квадратными скобками обозначены формы облаков: Ci - перистые, Cs - перисто-слоистые, Cc - перисто-кучевые, Ac - высококучевые, As - высокослоистые, Sc - слоисто-кучевые, Ns - слоисто-дождевые, Cu - кучевые, Cb - кучево-дождевые. Подробнее классификацию облаков см. в Атласе облаков (PDF).
T - Температура воздуха - температура, измеренная на высоте 2 м над землей.
Td - Температура точки росы - температура, при понижении до которой содержащийся в воздухе водяной пар достигнет насыщения.
f - Относительная влажность воздуха - влажноcть воздуха, измеренная на высоте 2 м над землей.
Te - Эффективная температура - температура, которую ощущает одетый по сезону человек в тени. Характеристика душности погоды. При расчете учитывается влияние влажности воздуха и скорости ветра на теплоощущения человека.
Tes - Эффективная температура на солнце - температура, которую ощущает человек, с поправкой на солнечный нагрев. Характеристика знойности погоды. Зависит от высоты солнца над горизонтом, облачности и скорости ветра. Ночью, в пасмурную погоду, а также при ветре 12 м/с и более поправка равна нулю.
P - Атмосферное давление - приведенное к уровню моря атмосферное давление.
Po - Атмосферное давление - измеренное на уровне метеостанции атмосферное давление.
Tmin - Минимальная температура - минимум температуры воздуха на высоте 2 м над землей.
Tmax - Максимальная температура - максимум температуры воздуха на высоте 2 м над землей.
R - Количество осадков - Количество выпавших осадков, мм. При наведении курсора мыши на число - период времени, за который выпало указанное количество осадков.
S - Снежный покров - Высота снежного покрова, см. При наведении курсора мыши на число - состояние снежного покрова и степень покрытия местности в баллах.